Flag for Japan Weather past 2 weeks in Utsunomiya, Japan

Now
56 °F

Cool.


Feels Like: 56 °F
Forecast: 49 / 71 °F
Wind: 2 mph from North

Location: Mito

Current Time: Oct 26, 2014 at 2:36:01 AM

Latest Report: Oct 26, 2014 at 2:00 AM


Visibility: N/A

Pressure: 30.19 "Hg

Humidity: 94%

Dew point: 54 °F

Location of UtsunomiyaLocation

Historic Weather in Utsunomiya — Graph

°F

Utsunomiya temperature yesterday

Maximum temperature yesterday: 72 °F (at 2:00 PM)
Minimum temperature yesterday: 47 °F (at 6:00 AM)
Average temperature yesterday: 59 °F

Past Weeks' High & Low Weather Summary

 TemperatureHumidityPressure
High78 °F (Oct 14, 10:00 AM)97% (Oct 13, 9:00 PM)30.38 "Hg (Oct 13, 9:00 PM)
Low44 °F (Oct 18, 6:00 AM)37% (Oct 14, 2:00 PM)29.09 "Hg (Oct 14, 4:00 AM)
Average60 °F77%30.08 "Hg
* Reported Oct 11 1:00 AM — Oct 26 1:00 AM, Utsunomiya, Weather by CustomWeather, © 2014

Note: Actual official high and low records may vary slightly from our data, if they occured in-between our weather recording intervals... More about our weather records

Advertising

Utsunomiya weather history for previous 24 hours

 ConditionsComfort  
Time TempWeatherWind HumidityBarometerVisibility
1:00 AM
Oct 26
56 °FCool.3 mph93%30.19 "HgN/A
12:00 AM56 °FCool.2 mph94%30.21 "HgN/A
11:00 PM
Oct 25
57 °FCool.2 mph93%30.21 "HgN/A
10:00 PM57 °FCool.2 mph92%30.22 "HgN/A
9:00 PM58 °FPassing clouds.3 mph92%30.23 "Hg12 mi
8:00 PM60 °FCool.3 mph91%30.23 "HgN/A
7:00 PM62 °FCool.2 mph83%30.22 "HgN/A
6:00 PM65 °FMild.3 mph74%30.22 "HgN/A
5:00 PM66 °FMild.2 mph70%30.21 "HgN/A
4:00 PM70 °FMild.3 mph61%30.19 "HgN/A
3:00 PM70 °FPassing clouds.6 mph57%30.18 "Hg12 mi
2:00 PM72 °FMild.6 mph54%30.18 "HgN/A
1:00 PM71 °FMild.5 mph53%30.18 "HgN/A
12:00 PM71 °FMild.6 mph55%30.21 "HgN/A
11:00 AM68 °FMild.6 mph58%30.23 "HgN/A
10:00 AM66 °FMild.3 mph64%30.24 "HgN/A
9:00 AM60 °FSunny.3 mph80%30.25 "Hg12 mi
8:00 AM54 °FCool.3 mph87%30.26 "HgN/A
7:00 AM49 °FCool.2 mph95%30.24 "HgN/A
6:00 AM47 °FCool.2 mph96%30.23 "HgN/A
5:00 AM48 °FCool.3 mph96%30.22 "HgN/A
4:00 AM48 °FCool.2 mph96%30.22 "HgN/A
3:00 AM49 °FClear.2 mph96%30.22 "Hg9 mi
2:00 AM49 °FCool.2 mph95%30.22 "HgN/A
Weather by CustomWeather, © 2014

See weather overviewHow to use our weather pages